GFSSW_con_lsi_087.txt.gz
Lid_Strength_Index
-1 -1 -1 -1 -0 -0 -0 -0 -0 -1 -1 -1 -1 -1 -1 -1 -1 0 4 2 1 -1 1 3 4 3 3 4 4 4 7 8 8 8 7 5 6 5 4 5 5 3 4 3 1
-1 -1 -1 -1 -0 -0 -0 -0 -0 -1 -1 -1 -1 -1 -1 -1 1 4 1 -1 -2 -1 3 5 5 4 5 5 5 6 7 7 6 6 7 6 5 5 6 6 6 5 4 3 2
-1 -1 -1 -1 -0 -0 -0 -0 -0 -1 -1 -1 -1 -1 -1 -1 4 4 -0 -2 -1 1 3 4 4 5 6 5 6 7 8 7 7 6 6 6 6 5 6 7 5 5 4 4 3
-1 -1 -1 -0 -0 -0 -0 -0 -0 -0 -1 -1 -1 -1 -1 1 9 3 -1 -1 -1 2 3 4 5 6 7 7 6 8 7 7 7 7 7 7 6 7 6 5 5 4 4 4 3
-1 -1 -1 -1 -0 0 0 -0 -0 -1 -1 -1 -1 -1 1 5 6 2 -0 0 2 3 4 5 6 6 7 7 7 8 7 7 7 7 7 7 7 7 6 5 4 5 5 4 4
-1 -1 -0 -0 -0 -0 0 0 -0 -0 -1 -1 -1 -1 3 8 2 1 2 3 3 4 4 4 5 5 7 7 7 7 7 7 7 7 7 8 7 8 6 5 5 5 5 5 4
-0 -1 -0 -0 -0 -0 0 -0 -0 -0 -0 -1 -1 1 4 6 1 1 3 3 3 3 5 4 4 5 6 7 6 7 8 7 7 7 7 7 8 8 6 6 6 6 5 5 5
-0 -1 -0 -1 -0 -0 -0 -0 -0 -0 -1 -1 -1 1 6 2 1 2 2 3 3 3 3 4 4 5 6 6 7 8 8 10 7 7 7 7 10 6 5 6 6 6 5 5 5
-0 0 -0 -0 -1 -0 0 -0 -0 -0 -1 -1 1 3 7 1 3 2 2 4 3 3 4 4 4 6 6 8 9 8 11 10 9 7 8 8 9 7 6 6 7 6 5 5 5
1 0 -0 -0 -0 -1 -0 -0 -1 -1 0 0 2 5 5 6 3 3 3 3 4 4 5 5 6 8 8 9 12 11 10 10 10 8 9 9 9 7 6 6 6 6 5 5 4
1 1 1 -0 -0 0 -0 1 3 4 3 6 6 7 6 3 2 4 4 4 4 5 8 6 9 10 8 8 8 9 10 10 9 8 9 9 9 8 7 7 7 6 6 5 5
0 1 1 0 -0 -0 1 4 4 3 7 4 5 5 4 3 6 4 4 6 6 8 7 8 10 8 7 8 9 9 11 11 9 8 10 10 10 8 7 7 6 6 6 5 5
0 0 1 1 0 1 3 5 1 2 7 6 4 5 5 4 6 5 5 5 7 8 8 10 9 7 8 9 10 10 11 11 11 9 9 10 10 9 7 6 6 6 5 5 5
1 0 1 1 2 2 3 2 1 2 9 9 8 5 5 5 7 3 4 5 7 9 8 9 7 9 9 10 9 12 9 10 10 11 13 10 14 10 9 8 7 6 5 5 4
2 2 1 0 2 4 2 1 0 2 17 7 7 4 5 7 7 6 4 5 8 8 8 10 9 9 10 10 8 10 9 9 10 11 11 11 13 11 9 9 8 6 5 4 3
3 3 3 1 1 1 1 1 2 12 19 11 8 8 8 7 8 7 7 5 6 8 8 9 8 8 8 9 8 8 9 10 10 10 15 12 12 12 10 9 8 6 5 4 5
3 3 3 2 4 0 1 4 13 18 8 11 10 9 8 9 9 8 9 9 10 12 12 10 10 9 8 10 9 9 10 14 15 16 15 11 12 11 8 7 7 6 5 6 6
4 4 3 3 1 1 3 9 17 13 11 8 9 9 11 9 9 9 9 11 9 9 11 12 13 10 9 9 10 10 10 13 19 16 14 13 14 12 7 6 6 5 5 5 6
4 4 5 3 2 1 7 15 15 12 9 10 10 12 12 10 10 10 10 10 9 8 11 12 12 8 9 8 8 11 12 9 13 14 15 13 11 9 7 7 7 6 6 6 5
5 6 6 3 2 3 10 14 12 9 9 9 13 10 13 12 12 11 11 9 9 8 7 9 12 10 10 9 8 9 8 13 12 19 18 14 13 12 9 8 7 7 6 6 6
5 9 5 1 1 7 13 12 11 8 8 10 12 13 13 13 11 12 11 9 8 8 8 9 10 12 11 11 11 11 11 10 10 12 16 17 13 8 8 7 7 6 6 6 7
5 12 2 0 8 8 12 10 8 8 7 9 9 10 12 12 13 13 13 10 9 9 11 10 11 14 12 9 9 9 10 10 14 16 13 14 14 7 7 6 6 6 7 6 7
7 8 3 3 11 11 8 10 8 9 9 9 10 9 9 11 14 12 11 8 7 8 11 10 14 17 15 11 11 13 11 10 10 11 15 17 14 9 8 8 7 7 7 7 8
6 11 7 6 5 8 9 10 10 7 8 8 9 9 10 12 10 12 12 8 8 8 9 10 14 15 17 14 12 14 12 11 12 15 14 14 12 9 8 8 8 8 8 7 8
6 9 8 11 10 8 8 9 10 10 7 7 10 9 11 13 12 13 10 10 8 8 8 10 15 13 12 12 12 13 13 12 13 12 14 12 12 9 8 7 7 6 6 8 8
8 8 8 9 9 9 9 10 10 9 9 9 10 9 9 11 10 12 10 10 11 11 10 11 15 14 15 12 12 14 13 13 13 11 11 10 11 7 7 7 7 6 7 8 8
5 5 6 9 9 10 10 9 9 8 7 7 7 9 10 9 8 8 8 8 8 10 11 13 14 15 17 13 13 16 14 13 12 11 11 13 10 8 8 8 7 6 6 6 6

GFSSW_con_lsi_093.txt.gz
Lid_Strength_Index
-1 -1 -1 -1 -1 -1 -1 -1 -0 -0 -1 -1 -1 -1 -1 -1 -1 1 4 2 2 0 1 6 6 6 6 7 7 8 12 14 12 12 12 9 10 9 8 8 8 7 6 5 4
-1 -1 -1 -1 -1 -1 -1 -1 -0 -0 -1 -1 -1 -1 -1 -1 2 3 -0 -1 -1 -0 5 7 8 7 9 9 8 10 13 12 11 12 11 9 9 9 10 9 10 8 6 4 3
-1 -1 -1 -1 -1 -1 -1 -1 -0 -0 -1 -1 -1 -1 -1 -0 4 4 -1 -1 -1 1 4 5 6 7 9 9 10 11 12 11 11 10 9 9 10 9 10 11 9 8 7 4 5
-1 -2 -1 -1 -1 -1 -1 -0 -0 -0 -1 -1 -1 -1 -1 2 11 3 -1 -1 -0 3 5 6 8 10 11 11 9 12 10 10 9 9 9 10 9 10 9 9 8 8 7 5 5
-0 -1 -1 -1 -1 -1 -1 -0 -0 -0 -1 -1 -1 -1 2 6 6 2 -1 0 3 4 6 7 9 9 11 10 10 11 11 10 9 9 10 9 11 10 10 9 8 8 7 5 4
-0 0 -1 -1 -1 -1 -1 -0 -0 -1 -1 -1 -1 -1 5 10 3 2 3 4 4 5 6 7 8 8 9 10 11 10 10 10 10 10 10 11 11 11 10 9 9 8 8 7 5
0 1 -0 -1 -1 -1 -0 -0 -0 -1 -1 -1 -1 0 6 7 3 4 4 5 5 5 6 6 6 8 9 10 9 9 12 11 10 10 10 10 12 11 9 9 10 10 9 8 7
0 1 1 -0 -1 -1 -1 -0 -0 -1 -1 -1 -1 3 8 3 4 3 4 5 5 5 5 5 6 7 8 8 10 12 13 15 11 10 10 11 15 11 10 10 10 10 11 9 9
1 1 1 0 -0 -1 -1 -1 -0 -0 -1 -1 3 5 9 2 4 4 5 6 5 5 6 5 6 9 9 12 14 14 17 15 13 10 10 11 14 10 10 10 10 11 10 10 10
1 1 1 1 1 -1 -0 -0 -1 -0 -0 0 2 8 7 7 4 4 5 5 6 7 7 8 9 12 13 15 18 16 16 14 15 11 12 13 13 11 10 10 11 10 10 10 9
1 1 0 1 1 0 0 2 6 7 4 8 8 9 6 4 3 5 5 6 6 8 12 10 13 15 13 13 12 14 15 15 13 11 12 13 13 12 11 11 11 11 11 10 9
1 1 0 0 0 0 2 5 5 5 8 5 6 6 5 4 6 6 5 8 9 12 10 12 14 11 10 11 12 13 15 15 13 11 13 13 13 12 11 11 9 10 11 10 11
1 1 1 0 0 2 3 4 1 3 9 8 6 7 6 5 7 7 6 8 10 11 12 13 11 9 10 12 12 14 14 15 14 13 13 14 15 13 12 11 10 9 9 9 9
3 1 1 0 2 3 5 3 1 2 12 11 8 7 6 6 9 5 6 8 10 11 12 12 10 11 12 12 12 15 12 12 13 15 18 14 19 15 13 12 11 10 9 9 10
4 3 1 1 3 4 2 2 1 4 19 9 8 4 5 9 8 7 6 8 11 11 11 13 12 12 12 12 11 13 11 12 13 15 16 17 18 17 14 14 12 11 11 10 10
5 4 3 1 2 2 1 1 3 13 20 11 8 9 9 8 9 8 8 7 8 10 11 12 10 11 11 11 11 10 12 12 13 15 19 17 17 18 15 13 12 11 11 9 9
5 5 5 3 4 1 1 4 13 17 11 13 12 10 10 11 10 10 10 11 12 14 14 12 12 11 10 12 11 12 14 18 19 20 20 16 18 17 13 11 11 11 10 9 9
5 5 5 5 3 1 3 9 17 13 12 9 10 11 13 11 12 11 12 13 11 13 14 15 16 12 10 11 12 13 14 18 22 20 19 16 18 15 12 10 9 9 10 9 9
5 5 5 5 3 2 7 15 15 13 11 11 10 13 13 12 13 13 14 14 12 12 15 16 16 11 11 10 10 13 14 12 16 22 20 18 16 13 11 10 10 10 9 9 10
8 8 7 2 3 4 10 14 13 9 9 9 13 11 14 13 13 13 14 12 12 10 11 13 15 13 12 10 11 12 11 15 15 21 22 19 18 16 13 12 11 10 10 10 10
8 11 7 2 3 8 14 13 11 8 8 11 12 13 12 13 13 14 13 12 11 11 9 11 13 15 12 13 13 13 14 13 13 15 19 21 18 14 13 11 10 10 10 10 10
8 15 5 3 10 10 14 11 9 9 8 9 9 11 12 12 12 14 13 12 10 10 12 11 13 18 15 12 11 13 13 13 17 18 17 17 16 11 10 10 9 9 9 10 10
10 10 5 5 14 12 11 10 9 9 9 10 11 9 9 12 14 12 11 9 9 9 11 11 15 21 17 14 13 14 13 12 12 15 16 19 17 11 10 10 9 9 9 9 9
8 13 10 8 10 11 11 11 11 8 9 8 9 9 11 12 10 13 12 9 9 9 9 9 13 16 17 16 13 15 14 12 12 17 16 16 14 12 11 11 10 10 10 10 10
8 11 10 15 13 11 11 10 11 12 9 8 10 10 11 13 13 13 11 10 9 8 9 10 15 13 13 12 12 13 14 13 14 14 16 14 13 12 11 10 10 9 9 9 9
9 11 10 12 11 12 12 13 12 10 10 11 11 10 10 12 11 13 11 11 11 10 10 11 15 14 15 13 13 14 13 13 13 12 13 13 13 9 9 9 10 9 9 10 11
5 5 8 11 13 13 13 12 12 10 9 8 9 10 11 10 9 9 9 9 9 10 12 13 14 15 19 15 15 17 15 13 13 12 12 15 12 10 12 11 11 12 11 11 11

GFSSW_con_lsi_096.txt.gz
Lid_Strength_Index
-0 -0 -1 -1 -1 -0 -1 -1 -0 -0 -0 -0 -0 -1 -1 -1 -1 1 6 3 3 -1 1 6 7 7 7 8 8 9 13 14 13 13 12 10 10 10 9 8 9 8 7 6 4
-0 -0 -0 -1 -1 -1 -1 -1 -0 -0 -0 -0 -0 -1 -1 -1 2 4 -0 -2 -2 -0 6 8 8 8 10 9 9 11 13 13 12 12 12 10 11 10 10 10 10 8 6 4 5
-0 -0 -1 -1 -1 -1 -1 -1 -0 -0 -0 -0 -1 1 -1 -0 4 5 -1 -2 -1 1 5 6 7 8 10 10 11 11 12 11 11 11 10 10 11 10 10 12 9 8 6 5 6
1 -0 -1 -1 -1 -1 -1 -1 -0 -0 -0 -1 -1 -0 -1 2 12 4 -1 -1 -1 4 5 7 8 10 11 11 10 12 11 11 10 10 10 11 10 11 10 9 8 8 5 5 5
1 0 0 -1 -1 -1 -1 -1 -0 -0 -0 -1 -1 -1 2 7 7 3 -1 0 4 5 7 8 9 10 12 11 10 12 12 11 10 10 11 10 11 11 10 9 9 9 5 5 4
1 1 -0 -1 -1 -1 -1 -1 -0 -0 -0 -1 -1 -1 6 10 3 2 3 4 5 6 7 7 9 9 10 11 11 10 10 11 10 11 11 12 13 12 11 11 10 9 8 5 5
1 1 0 -0 -1 -1 -1 -1 -0 -0 -0 -1 -1 0 6 8 4 4 4 5 5 6 7 7 7 9 10 10 9 10 12 12 11 11 11 11 13 12 11 10 11 11 10 8 5
1 1 1 -1 -1 -1 -1 -1 -1 -1 -0 -1 -1 3 10 3 4 4 5 6 5 5 5 6 6 7 9 9 10 12 13 16 13 11 11 12 15 12 11 11 11 11 12 10 9
1 1 1 -0 0 -1 -1 -1 -1 -1 -1 -1 3 6 10 2 5 4 5 6 6 6 6 5 7 9 10 13 14 14 17 16 14 11 11 12 14 11 10 11 11 11 11 11 11
0 1 1 1 1 0 -1 -0 -1 -0 -0 0 3 8 8 8 5 5 5 5 7 7 8 8 10 12 14 15 18 16 16 15 16 12 13 14 13 11 11 11 11 11 11 11 10
1 1 1 1 1 1 1 3 7 8 5 9 9 9 7 5 4 6 5 6 7 9 13 11 13 15 13 13 14 15 15 16 15 12 12 13 13 12 11 12 11 11 11 11 10
1 1 1 1 0 0 3 5 7 7 10 6 6 7 5 5 7 6 6 9 10 12 11 12 16 12 12 13 13 14 15 16 14 13 13 14 14 12 12 11 10 10 11 11 11
0 1 1 1 0 1 4 4 2 3 10 8 6 7 6 5 8 8 7 9 11 12 12 14 13 10 11 13 13 14 15 15 14 14 15 15 16 15 13 12 11 10 10 10 11
2 1 0 1 3 3 5 3 2 3 12 11 8 7 6 6 9 5 6 8 11 12 12 13 11 11 12 13 13 15 13 13 14 16 18 16 20 17 14 13 12 11 10 12 11
3 3 0 0 3 5 4 2 3 6 19 10 8 5 6 9 9 8 7 8 11 11 12 13 12 12 13 13 12 14 12 13 14 16 17 18 18 17 16 15 13 12 11 11 11
4 3 3 1 2 3 1 2 4 12 21 12 9 9 9 9 9 8 8 8 9 11 12 12 11 11 11 12 12 11 13 13 15 16 20 17 18 19 16 14 14 12 11 10 9
4 4 4 3 4 1 1 4 13 18 12 13 12 10 10 11 10 10 10 11 12 14 15 13 13 12 11 12 12 13 15 19 20 20 20 18 19 17 14 13 12 11 11 10 9
5 4 5 5 4 3 3 9 17 14 14 10 10 11 13 11 11 10 11 12 11 14 14 15 16 12 11 12 13 14 14 18 23 21 20 17 19 16 13 11 10 10 10 10 11
4 5 5 4 3 3 7 15 15 14 11 11 11 13 13 12 13 13 13 12 11 12 14 15 15 12 11 11 10 13 15 13 17 23 21 18 17 14 12 11 11 11 11 12 10
7 8 8 3 3 5 11 14 12 9 9 10 14 12 15 13 14 13 13 12 12 10 11 13 16 13 12 10 11 12 11 15 16 22 23 19 19 17 13 13 11 11 10 10 9
7 11 7 3 4 8 14 13 11 8 8 11 12 13 12 13 13 13 14 13 11 11 11 13 15 16 14 15 15 14 15 15 14 16 19 21 18 14 13 11 11 11 10 10 10
8 15 6 3 10 12 14 11 8 9 8 9 10 11 12 12 13 14 13 13 10 11 13 12 15 19 16 13 13 13 14 14 17 19 18 18 17 12 11 11 10 11 10 11 11
10 10 6 5 13 12 11 10 9 10 9 10 11 10 9 12 14 12 11 10 9 11 12 11 15 21 17 14 13 15 13 12 13 15 17 19 18 12 12 11 10 10 11 10 10
9 13 10 7 9 11 11 11 11 8 9 8 10 9 11 12 11 13 12 10 9 9 9 9 14 16 17 16 14 15 14 13 13 18 17 16 16 13 12 12 11 10 10 10 11
8 11 10 14 13 10 9 10 11 12 9 8 10 10 11 14 13 13 11 10 9 9 10 10 15 14 13 13 13 14 14 13 14 14 16 15 15 13 11 11 11 11 10 11 11
11 11 9 11 11 11 10 12 11 10 10 11 11 10 10 12 12 13 11 11 12 10 10 11 15 14 15 13 13 15 13 14 14 13 13 14 13 10 11 11 12 12 12 12 12
7 6 8 11 12 12 13 12 11 10 9 9 9 10 11 10 10 10 8 9 10 11 11 12 14 15 17 15 15 17 15 13 14 13 12 14 12 12 13 12 13 13 12 12 12

GFSSW_con_lsi_102.txt.gz
Lid_Strength_Index
-0 -0 0 0 -0 -1 -1 -0 0 0 -0 -0 1 0 0 0 0 3 7 4 3 -1 2 7 7 8 8 9 9 11 13 15 14 14 13 12 11 12 10 10 9 8 8 6 3
-1 -0 0 0 -0 -1 -1 -1 0 -0 -0 -0 0 1 -0 0 5 6 1 -2 -2 -1 7 8 9 8 9 10 10 11 13 13 12 13 12 11 11 10 10 10 9 8 6 4 4
-1 -1 -0 -0 -0 -1 -1 -1 0 -0 -0 -0 0 0 0 1 6 8 -1 -2 -1 1 6 7 8 8 11 11 11 12 12 12 12 12 11 10 12 11 11 11 10 9 8 5 5
-0 -1 -1 -0 -0 -1 -1 -1 0 0 -0 -0 -0 -0 -0 4 14 5 -1 -1 -0 5 6 8 9 11 12 12 11 13 12 11 11 11 11 11 11 12 11 10 10 9 7 5 5
0 0 -0 -0 -1 -1 -1 -1 -0 0 -0 -0 -0 -1 3 10 9 4 -1 1 5 6 7 8 10 11 12 11 12 13 13 12 11 12 12 11 12 12 11 10 11 10 5 5 5
1 1 0 0 -1 -1 -1 -1 -0 0 0 -0 -1 -1 7 12 5 3 4 5 6 7 8 8 9 9 11 12 12 11 12 12 12 12 12 13 14 13 12 12 11 10 8 5 5
1 1 1 1 -0 -1 -1 -1 -1 -0 0 -0 -1 2 8 10 5 4 5 6 5 6 8 7 8 10 10 11 10 11 13 13 13 12 13 12 13 12 13 12 12 11 11 7 6
1 1 1 1 0 -0 -0 -0 -1 -0 0 -0 -1 5 10 5 5 6 6 7 6 6 6 7 7 8 10 10 11 13 14 16 14 12 12 13 16 13 13 13 12 12 13 11 9
1 1 1 1 1 0 -0 -0 -0 -0 -0 -1 5 9 11 3 6 5 7 7 6 7 7 6 8 10 11 13 15 15 18 17 14 12 13 14 15 13 12 12 12 12 12 12 12
0 1 0 0 1 1 1 1 -0 0 0 1 3 10 9 9 6 5 7 6 7 7 8 9 11 13 14 15 18 17 17 16 17 14 13 14 14 12 12 13 12 12 12 12 12
-0 0 0 0 0 1 2 6 9 10 7 10 9 11 9 6 5 7 7 7 9 11 13 11 13 15 14 13 15 14 16 17 16 14 14 14 14 13 12 13 12 12 11 11 11
-0 -0 -1 0 0 1 5 10 10 9 10 6 7 7 6 5 8 7 6 9 10 13 13 13 15 13 12 13 14 15 16 17 15 14 14 15 14 13 13 12 11 11 12 12 12
0 -0 -0 -0 0 3 5 6 4 5 12 10 7 8 7 6 9 8 7 9 12 13 13 14 14 12 12 14 14 16 16 17 16 16 15 16 17 16 14 14 13 12 11 11 12
1 0 0 0 3 3 5 3 3 5 14 13 10 9 6 6 10 7 7 9 12 13 13 14 13 13 14 15 14 17 14 14 15 16 18 17 21 18 16 14 14 12 13 13 13
3 1 -0 1 4 6 4 3 4 8 21 12 10 7 7 9 9 9 8 9 12 13 12 14 13 14 15 14 13 15 13 14 16 17 18 19 19 18 17 15 13 14 13 12 11
3 3 0 2 2 3 3 3 5 14 22 14 11 11 10 10 10 9 9 9 10 12 13 14 12 12 13 13 13 12 14 15 16 17 20 18 18 19 17 15 15 14 13 12 12
4 3 3 3 4 2 3 6 15 18 14 15 13 12 12 12 11 11 11 12 14 16 16 14 14 12 12 13 13 15 15 19 20 21 20 19 19 18 15 15 15 14 13 13 13
4 4 4 3 2 2 4 11 18 15 15 12 12 12 14 12 11 11 12 13 12 15 16 17 18 13 12 13 14 15 15 18 23 22 20 18 19 17 15 14 13 12 12 12 12
4 7 6 4 2 2 8 15 16 15 12 12 12 14 15 13 13 13 13 12 11 13 15 17 17 13 13 12 11 14 16 15 18 26 22 19 18 14 14 12 12 12 12 12 13
7 9 8 3 2 4 10 14 13 11 10 10 14 13 15 14 14 14 14 12 13 11 13 13 16 14 13 12 12 13 12 16 18 24 24 20 20 18 15 13 13 13 13 12 12
9 12 8 1 2 9 14 13 11 9 8 11 12 13 14 14 13 13 14 13 11 12 11 13 14 15 13 14 14 15 15 15 15 17 21 23 20 16 14 12 13 13 12 13 12
10 15 5 2 9 12 13 11 8 9 8 9 10 11 12 12 13 13 14 13 12 11 12 12 14 17 15 13 13 14 14 14 16 19 19 18 18 13 12 12 12 12 11 12 12
13 13 5 3 12 11 10 11 9 10 9 10 11 10 10 12 14 12 13 11 11 11 12 12 15 21 17 14 14 15 15 14 15 16 18 20 18 13 12 12 12 12 12 12 12
12 15 11 6 7 9 11 11 11 8 9 8 9 9 11 12 11 13 13 10 9 11 8 9 14 14 17 17 15 15 15 14 13 17 16 17 16 14 13 12 12 13 13 13 13
12 13 13 13 10 9 9 10 12 12 9 8 10 10 11 14 12 13 11 11 9 8 9 11 16 15 15 15 15 15 15 14 14 14 16 15 15 12 12 12 12 13 13 12 12
12 12 10 13 12 11 9 11 11 10 10 12 11 10 10 13 12 13 12 11 12 10 11 11 18 16 17 14 14 16 15 14 13 13 13 16 16 14 13 13 14 13 13 13 13
10 7 8 11 13 13 12 11 11 9 9 9 11 12 13 11 10 9 8 9 10 11 12 12 14 16 17 15 14 16 15 14 14 13 13 16 13 13 14 13 14 14 13 13 13

GFSSW_con_lsi_105.txt.gz
Lid_Strength_Index
-1 -1 -1 0 -0 -1 -1 -1 -0 0 1 0 1 0 -0 -1 -0 3 7 5 3 -1 2 7 7 7 7 8 8 9 12 13 12 12 11 10 10 9 8 8 8 6 7 5 2
-2 -1 -1 -0 -0 -1 -1 -1 -1 0 1 0 1 1 0 0 5 7 2 -0 -1 -1 7 8 9 8 9 9 9 10 12 12 11 11 11 10 10 9 9 9 9 7 5 3 2
-1 -1 -1 -1 -0 -1 -1 -1 -1 0 1 0 0 1 0 2 8 9 -1 -1 -2 1 6 7 8 8 10 9 10 10 12 11 11 10 10 10 10 9 9 10 8 8 7 4 3
-1 -1 -1 -1 -0 -1 -1 -1 -1 0 1 0 0 0 0 5 15 7 -1 -1 -1 6 7 8 9 10 11 11 10 11 11 11 10 10 10 10 10 10 10 9 8 8 6 4 4
-0 -0 -1 -1 -0 -1 -1 -1 -1 -0 1 1 -0 -1 4 10 10 5 -0 1 5 6 7 8 10 10 11 11 11 12 12 11 10 11 11 10 11 10 10 9 9 9 5 4 4
1 1 -0 -0 -1 -1 -1 -1 -1 -0 1 0 -1 -0 7 13 6 4 4 6 6 7 8 8 9 9 11 11 12 11 11 12 11 11 11 12 13 12 11 11 11 9 7 4 4
1 1 1 0 -0 -1 -1 -1 -1 -0 0 0 -1 3 8 10 5 5 5 6 6 7 8 7 8 9 10 11 10 11 12 12 12 12 12 11 13 12 11 11 11 10 10 7 4
1 1 1 1 0 -0 -1 -1 -0 -0 -0 -0 -1 5 11 6 6 5 6 6 6 6 7 7 7 9 10 10 11 13 13 15 13 12 12 12 15 13 12 12 11 11 11 11 9
1 1 1 1 1 0 -0 0 -0 -0 -1 -0 5 9 12 3 6 6 7 7 7 7 7 6 8 10 10 13 14 14 17 16 14 12 12 13 14 12 11 12 11 11 11 11 11
1 1 1 1 1 1 1 1 1 1 1 2 4 10 10 10 6 6 7 6 8 7 8 9 11 12 14 14 17 16 16 16 16 14 13 14 13 12 11 12 11 11 11 11 11
1 1 1 1 1 1 2 6 9 10 7 10 10 11 9 6 6 7 7 8 8 9 12 11 13 15 14 13 14 14 15 16 15 13 14 14 14 13 12 12 12 11 11 10 10
0 0 -0 0 0 1 6 10 10 9 11 7 8 8 7 6 9 8 7 10 11 13 12 13 16 13 12 13 14 15 16 16 14 13 13 15 14 13 12 12 11 11 11 11 11
0 0 0 0 0 4 6 8 4 6 11 10 7 8 8 6 9 8 8 10 12 14 13 14 13 12 12 14 14 16 16 16 15 15 15 16 16 15 14 13 12 12 11 11 11
-0 0 0 0 3 4 7 4 4 6 15 14 11 9 7 7 10 7 8 10 13 14 15 14 14 14 15 15 14 16 14 14 15 16 18 16 20 17 15 14 13 12 13 12 11
2 0 -0 0 4 6 5 3 4 9 20 13 12 7 8 10 10 10 8 10 13 13 13 14 14 15 16 15 13 15 13 14 14 16 17 18 18 17 16 14 13 13 12 11 11
3 1 1 2 3 3 3 4 6 14 21 15 12 12 11 12 11 9 10 9 11 12 13 14 12 12 13 13 13 13 14 15 16 17 20 18 18 18 17 15 14 13 13 12 12
4 3 2 2 5 3 3 6 15 19 14 15 14 12 13 14 12 11 11 13 14 16 16 14 14 13 12 13 13 14 15 19 20 20 20 19 18 17 15 14 14 13 12 12 11
5 4 4 3 2 3 5 11 18 16 15 12 12 13 15 13 13 12 12 13 12 15 16 17 18 13 12 13 14 15 15 18 22 22 20 17 19 17 14 13 12 11 12 11 11
5 8 5 4 2 3 9 15 17 15 12 12 13 15 15 13 14 14 13 13 11 13 15 17 17 13 13 12 11 14 16 15 18 24 21 18 17 15 14 12 12 12 12 12 12
9 10 8 3 2 5 10 13 14 12 11 11 15 14 17 15 14 14 15 13 13 11 12 13 16 14 13 12 12 13 12 16 17 23 23 20 19 17 15 13 13 13 13 12 12
10 11 8 2 4 8 14 13 12 10 9 11 13 14 15 15 14 14 14 13 11 12 11 13 14 15 13 14 14 15 15 16 15 17 20 23 19 16 15 13 13 13 13 13 13
12 13 6 3 11 13 15 12 9 10 9 9 10 12 13 13 13 14 14 14 11 11 13 12 14 16 14 13 13 14 14 14 16 19 20 19 18 14 13 12 12 12 12 12 12
14 13 6 4 12 13 11 10 9 10 9 10 11 10 10 12 15 13 13 11 11 11 12 12 15 21 16 15 14 14 15 14 15 16 18 20 17 13 13 12 12 12 12 12 12
12 14 11 7 8 10 11 11 11 7 9 8 10 9 11 12 12 13 13 10 10 11 8 9 14 14 17 16 15 15 15 14 14 17 16 16 16 14 13 13 12 12 12 12 12
12 14 12 13 11 10 9 10 11 12 8 8 10 10 11 13 12 13 12 11 9 9 10 11 15 14 14 16 15 14 14 13 14 13 15 14 16 13 12 12 11 12 13 12 13
14 13 12 14 12 11 10 12 11 10 10 11 11 10 10 12 12 13 12 11 12 10 11 11 15 15 16 14 14 16 15 14 13 13 13 16 15 13 10 12 12 12 13 13 13
11 10 12 13 13 13 13 12 11 9 9 8 9 10 11 10 10 9 9 10 9 10 11 12 13 16 16 15 14 16 15 15 14 12 13 15 13 13 14 11 12 13 12 13 13

GFSSW_con_lsi_108.txt.gz
Lid_Strength_Index
-2 -2 -1 -1 -1 -1 -1 -1 -1 -0 0 -0 0 0 1 1 1 5 8 5 3 -2 1 5 5 5 5 5 6 6 8 9 9 9 8 6 6 6 6 6 5 3 4 3 2
-2 -1 -2 -1 -1 -1 -1 -1 -1 -0 0 0 0 0 1 1 5 7 2 -0 -2 -2 5 5 6 6 6 6 6 6 8 8 7 7 7 6 6 6 6 6 6 5 4 2 2
-1 -1 -1 -1 -1 -1 -1 -1 -1 -1 0 0 0 0 0 1 7 7 0 -2 -2 -1 5 5 5 6 7 7 7 7 8 8 7 7 7 7 7 6 6 7 5 5 4 3 3
-1 -1 -1 -1 -1 -1 -1 -1 -1 -1 -0 1 0 0 0 2 11 5 -1 -2 -2 3 5 6 6 7 8 8 8 8 8 8 8 7 7 7 6 7 6 6 6 4 3 3 4
0 -0 -1 -1 -1 -1 -1 -1 -1 -0 -0 0 0 -0 2 7 8 3 -1 0 3 4 6 6 7 7 9 9 9 9 8 9 8 8 8 8 8 7 7 5 6 6 4 3 3
1 0 0 -1 -1 -1 -1 -1 -1 -1 -0 0 0 -0 5 10 4 2 3 4 5 5 6 6 6 7 8 8 8 9 9 9 8 9 8 9 9 9 7 7 7 7 5 3 3
1 1 0 0 -1 -1 -1 -1 -1 -1 -1 -0 0 3 6 8 4 3 4 5 4 5 6 6 6 7 7 9 8 8 10 9 9 9 9 8 9 9 7 8 8 7 6 4 3
1 1 0 1 -0 -1 -1 -1 -1 -1 -1 -1 -0 4 8 5 2 4 4 5 4 4 5 5 5 7 7 8 9 10 9 11 10 9 9 9 10 9 8 8 8 7 7 6 5
1 1 1 1 0 -0 -1 -1 -0 -0 -1 -1 3 6 8 2 5 4 4 5 5 4 4 5 5 7 8 9 10 11 12 12 12 10 9 10 10 9 8 8 8 8 7 7 7
1 1 1 1 0 1 0 0 -0 -0 0 2 3 7 7 7 4 4 4 4 5 5 6 6 7 9 9 10 14 13 13 13 12 10 10 10 10 8 8 8 8 7 7 7 7
1 1 1 1 0 1 1 3 7 7 4 8 7 8 8 4 4 5 4 5 5 6 9 8 10 12 10 10 12 11 12 12 12 11 10 10 10 9 8 8 8 7 6 6 6
1 1 1 1 0 1 3 7 7 6 10 6 6 6 5 4 7 6 4 7 7 9 8 9 11 9 9 11 12 12 12 12 12 11 10 11 11 9 8 8 7 7 6 6 6
1 1 1 1 0 2 5 7 3 5 9 9 6 7 6 5 7 7 5 7 8 10 9 10 10 9 10 12 12 12 12 13 12 12 12 12 12 10 9 10 9 8 7 7 7
0 1 1 0 3 3 6 3 3 5 12 12 10 7 5 5 8 6 5 7 10 10 10 9 10 11 11 11 11 13 11 11 12 12 14 12 15 12 10 10 10 9 8 8 7
0 1 0 1 3 5 5 2 3 6 18 10 10 5 6 8 8 8 6 7 10 10 9 11 11 11 11 11 10 11 11 11 12 12 13 13 14 12 13 12 9 9 8 8 8
0 1 1 2 2 3 2 3 5 13 18 13 10 10 10 9 9 8 7 7 8 10 10 10 9 10 10 12 10 11 11 12 12 13 16 13 14 13 13 11 11 10 9 9 8
0 1 1 1 5 1 2 5 14 17 12 14 13 11 11 11 10 9 10 10 11 13 13 11 11 10 11 12 11 12 12 15 16 16 17 16 15 13 11 11 11 9 9 8 8
3 1 3 3 2 1 3 9 17 14 14 11 12 11 13 12 11 11 10 11 10 11 12 14 15 11 10 11 12 12 12 15 19 18 16 16 17 13 11 10 10 9 8 8 8
5 7 5 4 2 1 7 14 14 14 11 12 12 14 13 12 12 12 12 12 10 10 13 14 13 10 10 10 9 12 13 11 16 19 16 14 13 11 11 11 9 9 9 9 9
8 9 8 4 2 5 11 13 12 11 10 10 13 12 15 13 13 13 13 11 11 11 9 11 14 11 11 9 10 11 10 14 13 17 17 15 15 13 12 11 10 10 9 9 9
8 10 8 4 3 8 14 12 11 9 8 10 12 13 13 13 12 13 13 11 10 11 10 11 12 13 11 11 12 12 13 13 12 13 16 17 15 11 10 9 10 9 9 9 9
10 12 8 4 11 13 14 11 9 9 8 9 10 11 12 12 12 13 13 11 9 10 12 10 11 14 12 10 10 10 11 11 14 16 14 14 14 10 11 8 8 9 10 9 9
11 10 7 5 14 13 12 11 10 10 9 9 10 9 10 11 13 12 11 9 10 10 11 10 12 15 14 12 11 12 11 11 11 12 15 15 14 10 10 9 9 10 9 9 9
11 13 10 8 9 11 12 12 11 8 9 8 9 8 10 11 10 12 12 10 9 9 8 8 12 13 16 14 11 13 12 12 12 13 14 13 13 11 11 10 10 9 9 9 9
11 13 11 13 11 10 10 11 12 12 9 8 10 9 11 12 12 12 11 10 8 9 9 9 14 12 12 12 12 11 12 12 13 12 13 12 12 10 9 9 8 8 9 9 10
12 12 11 12 10 11 11 12 12 11 10 11 11 9 9 12 10 12 10 10 10 9 10 10 13 12 14 12 12 13 12 12 12 12 12 12 12 9 8 7 9 9 9 10 10
9 9 10 12 11 11 12 12 11 10 9 8 9 10 11 9 8 8 8 9 10 11 10 11 12 14 16 12 13 16 14 13 12 11 11 13 11 9 9 9 9 9 9 9 10

GFSSW_con_lsi_111.txt.gz
Lid_Strength_Index
-1 -1 -1 -1 -1 -1 -1 0 2 1 1 1 1 1 0 0 1 3 8 5 5 1 2 5 5 4 5 5 4 4 7 9 8 8 7 5 6 5 4 5 4 3 4 3 1
-1 -1 -1 -1 -1 -1 -1 -1 -1 1 1 -0 0 0 0 0 4 7 4 2 1 0 4 4 6 5 6 6 5 6 8 7 5 5 6 5 5 5 6 6 6 4 3 2 2
-0 -0 -1 -1 -1 -1 -1 -1 -1 -1 -0 -0 -0 -0 -0 1 7 7 1 1 1 2 3 3 5 5 6 6 6 6 7 6 6 6 5 5 5 5 6 7 5 5 3 3 3
-0 -0 -1 -1 -1 -1 -1 -1 -1 -1 -0 -0 -0 -0 0 3 11 5 -0 0 -0 3 5 4 5 8 8 8 6 8 7 7 6 7 6 6 5 6 5 5 4 4 3 3 4
0 0 -0 -0 -1 -1 -1 -1 -1 -1 -1 -0 -0 -0 2 7 7 3 -0 -0 2 4 5 5 6 7 8 7 8 8 7 8 7 7 6 6 6 6 6 4 5 4 3 3 3
1 1 -0 0 -1 -1 -1 -1 -1 -1 -1 -0 -0 -0 4 9 4 2 3 4 4 4 5 5 6 6 7 8 8 7 7 8 7 8 7 7 7 7 6 5 5 5 5 3 3
1 1 0 1 0 -1 -1 -1 -1 -1 -1 -1 -0 2 5 7 3 2 3 4 3 4 5 4 5 6 7 8 7 8 9 8 8 8 8 7 9 9 5 7 7 6 6 4 3
1 1 1 1 1 -1 -1 -1 -1 -1 -1 -1 -1 3 7 4 2 3 3 4 3 3 4 4 4 5 7 7 8 9 9 11 8 8 8 8 10 6 6 7 7 6 6 6 4
1 1 1 1 0 -1 -1 -1 -1 -1 -1 -1 2 5 8 2 5 3 3 5 4 4 4 4 4 6 7 9 10 10 12 11 11 8 8 9 9 7 7 8 7 7 6 6 5
1 1 1 0 0 -0 -1 -0 -1 -1 0 1 3 7 7 7 4 4 3 3 5 5 5 6 6 8 8 10 13 12 12 11 11 10 9 9 9 8 7 7 7 6 6 6 6
1 1 1 1 0 -0 1 2 5 6 4 7 7 8 7 4 3 5 4 5 5 6 9 7 10 11 10 9 9 10 11 11 10 10 10 10 10 8 7 7 7 7 6 6 5
1 1 1 1 -1 0 1 6 6 6 9 5 6 6 5 4 7 5 4 6 7 9 8 9 11 9 8 8 10 10 11 11 11 10 10 10 10 8 7 7 7 7 6 6 5
1 1 1 0 -0 1 4 5 3 3 9 8 6 6 6 5 7 6 5 6 7 9 9 10 9 8 9 10 11 11 11 11 12 11 10 11 11 10 8 7 7 6 6 5 5
1 1 1 1 3 3 5 3 2 3 11 10 9 7 5 5 8 5 4 6 8 9 8 9 9 9 10 11 10 12 10 10 11 12 14 11 15 10 9 9 9 8 7 6 6
1 1 1 1 3 5 4 1 1 4 17 9 9 5 5 7 7 7 5 6 9 9 8 10 10 10 10 10 9 11 9 10 11 12 12 12 14 12 11 11 9 8 7 7 6
1 1 1 2 2 2 1 1 3 11 17 12 10 10 9 8 8 7 7 6 7 9 9 10 9 8 9 10 9 9 10 10 10 11 16 13 13 13 12 10 9 8 8 7 7
1 1 2 2 4 1 1 3 12 17 10 13 13 10 10 11 10 9 10 10 11 13 12 11 11 9 9 10 9 9 11 14 15 16 17 13 14 13 9 10 9 9 8 7 7
1 1 2 2 2 1 3 9 16 13 12 10 11 11 12 11 10 9 10 11 9 10 11 13 15 11 9 10 11 11 11 13 18 17 15 15 15 13 9 9 9 9 8 7 7
1 2 3 3 1 2 8 15 15 11 9 11 11 13 13 12 11 10 10 11 9 9 12 13 13 9 9 9 9 11 13 10 15 16 15 14 13 10 9 10 9 9 8 7 7
7 6 5 4 1 4 10 13 11 9 9 10 13 12 14 13 13 12 12 10 10 8 8 10 13 11 10 9 9 10 9 14 13 18 18 16 14 14 12 11 10 9 9 8 7
7 9 7 4 3 7 14 11 10 9 8 11 11 13 12 13 13 13 13 10 9 9 8 9 11 12 10 12 12 12 12 11 11 12 15 17 15 10 9 9 10 9 8 7 8
9 13 8 4 11 12 13 10 9 9 8 9 9 11 12 11 13 13 13 11 9 9 12 10 11 13 13 9 8 9 11 11 13 15 13 13 13 9 10 9 7 8 8 7 7
11 11 7 5 14 14 11 11 9 9 9 9 10 10 10 12 13 11 11 9 9 10 11 10 12 16 15 12 11 12 10 10 10 11 13 15 14 8 9 9 7 7 8 8 8
10 13 12 9 10 11 12 12 12 8 8 8 9 8 10 11 10 11 11 9 9 9 9 9 11 14 16 14 11 13 12 11 11 13 13 13 12 10 10 9 8 8 8 8 8
11 12 12 13 13 10 10 11 12 12 9 8 9 9 10 11 11 12 10 9 9 9 9 9 14 12 12 12 11 11 12 11 12 12 13 13 12 11 9 9 8 7 8 8 8
12 13 11 11 11 11 11 12 11 10 10 11 10 9 9 11 10 12 10 10 10 9 10 9 15 11 14 11 11 13 12 11 12 12 11 12 11 9 7 7 8 8 8 8 8
9 9 10 12 11 12 11 11 10 9 9 9 9 9 10 9 8 8 7 8 9 10 10 11 13 14 15 12 12 15 13 12 11 10 11 13 11 9 9 8 8 8 8 8 8

GFSSW_con_lsi_114.txt.gz
Lid_Strength_Index
-1 -1 -1 -1 -1 -1 1 1 1 1 1 1 1 1 2 1 2 5 9 7 5 1 2 6 5 6 4 5 4 5 9 11 10 10 9 7 8 8 7 7 7 5 5 4 2
-1 -1 -1 -1 -1 -1 0 1 1 1 1 1 1 2 1 1 5 8 5 0 -1 -0 6 7 7 7 7 6 6 8 10 9 7 8 8 7 7 7 9 8 8 6 5 3 2
-0 -1 -1 -1 -1 -1 -1 -0 -0 1 1 1 1 1 1 1 6 8 -0 -0 -0 -0 5 6 7 6 9 8 7 7 9 7 8 7 6 7 8 7 9 9 8 7 5 4 4
-0 -0 -0 -1 -1 -1 -1 -1 -1 0 1 1 2 1 1 3 12 4 -0 -0 1 4 7 7 8 8 8 10 8 9 8 8 7 7 7 7 6 8 8 9 7 6 4 4 4
0 0 0 -0 -1 -1 -1 -1 -1 -1 -0 2 1 0 3 7 7 2 -1 -1 2 5 8 8 8 7 9 9 10 10 9 8 7 8 8 7 8 9 8 7 7 5 4 4 4
0 1 1 0 -0 -1 -1 -1 -1 -1 -1 -1 -1 0 4 10 4 2 2 2 5 7 9 8 7 6 8 8 9 9 9 9 8 9 8 8 10 9 8 7 7 7 6 4 4
0 1 1 0 0 -1 -1 -1 -1 -1 -1 -1 -1 3 6 7 3 2 4 5 5 6 7 6 6 7 8 9 8 9 10 10 10 9 10 9 11 11 9 9 8 7 7 6 5
1 1 1 1 0 0 -1 -1 -1 -1 -1 -1 -1 3 8 3 3 3 3 5 5 5 5 5 5 6 7 8 9 11 11 13 10 9 9 10 13 8 8 9 9 9 9 8 7
1 1 1 1 1 -0 -1 -1 -1 -1 -1 -1 2 4 8 3 4 4 4 5 5 5 5 5 5 7 8 11 12 12 15 13 12 9 10 11 12 9 9 10 10 10 9 9 8
1 1 1 1 1 -0 -0 -1 -1 -1 -0 1 3 6 7 8 4 4 4 4 6 6 6 6 8 10 11 12 16 14 15 13 13 12 11 12 12 10 10 10 10 10 9 10 9
1 1 0 1 0 -1 1 2 4 6 5 8 8 8 7 5 3 5 4 5 5 7 10 8 11 13 12 11 11 13 13 14 12 11 12 12 12 10 9 10 10 10 10 9 9
1 1 0 0 -0 -1 2 7 6 6 9 6 6 6 5 4 8 6 4 8 8 11 9 11 13 10 9 10 11 12 13 14 13 11 12 13 12 10 10 10 9 10 10 9 9
1 1 0 -0 -0 1 4 6 3 4 9 8 6 6 6 4 7 7 5 7 9 10 11 12 11 9 9 11 12 13 13 14 13 12 13 14 15 13 11 9 9 9 9 9 8
1 1 1 -0 2 3 5 4 2 3 12 11 9 7 5 5 8 5 5 6 9 10 10 11 10 10 11 12 11 14 12 12 13 14 17 14 19 15 13 12 11 10 10 9 9
1 1 1 1 3 5 4 2 2 5 18 10 9 4 5 7 7 7 6 7 10 10 10 12 12 12 12 11 10 12 11 12 12 14 16 16 18 16 13 13 12 11 10 10 9
1 1 1 2 2 2 2 2 4 12 18 12 10 10 9 8 8 7 8 7 7 9 10 11 10 10 11 11 10 10 12 12 14 15 19 16 17 18 15 13 13 12 10 9 8
1 2 2 2 5 1 1 4 13 17 11 14 13 11 11 11 10 9 10 11 12 14 14 12 12 11 10 12 11 12 14 18 19 19 20 16 17 16 14 13 12 11 10 10 8
1 1 2 2 0 0 3 9 18 14 13 11 12 11 13 11 10 10 11 13 11 12 13 15 16 12 11 12 13 13 13 17 21 20 19 17 19 16 11 12 12 11 10 10 9
1 2 3 3 1 1 7 15 17 13 11 12 12 13 13 12 11 11 12 12 11 11 14 14 14 10 10 11 11 13 15 13 17 21 20 17 16 13 12 12 11 12 10 9 9
3 4 5 2 2 4 10 14 11 9 9 10 14 12 15 14 13 13 12 11 11 10 9 12 15 12 11 10 11 12 11 16 16 22 22 19 19 17 14 13 13 12 11 10 9
6 8 7 2 3 8 14 13 10 9 8 11 11 12 12 13 13 13 13 11 9 10 9 11 12 14 12 13 14 13 14 13 14 15 19 21 18 14 13 12 13 13 11 10 10
9 13 7 4 10 11 13 11 9 9 8 9 9 10 12 12 13 13 13 12 9 9 11 10 11 16 14 12 11 11 13 13 16 18 17 17 17 12 12 12 12 11 10 10 9
13 11 7 5 15 13 11 10 9 9 9 9 10 9 10 12 14 12 12 11 10 10 11 10 13 18 16 14 12 14 13 12 12 14 16 19 17 11 11 12 11 10 10 10 9
13 14 13 8 9 11 12 12 12 8 9 8 9 9 10 12 10 13 12 10 10 10 9 9 12 15 18 15 13 15 13 12 12 16 15 16 15 14 13 12 11 10 10 10 10
13 14 13 14 14 11 11 11 12 12 9 8 10 10 11 12 12 12 11 11 11 10 11 11 17 15 15 14 14 14 14 14 14 14 16 15 15 13 13 12 11 10 10 10 10
13 13 12 11 11 11 11 12 12 11 10 11 11 9 9 11 11 13 11 11 12 11 12 11 16 15 18 14 14 16 14 13 13 13 13 13 14 10 12 12 11 10 10 10 10
10 10 10 12 12 13 13 12 11 10 10 8 9 10 11 10 9 9 9 9 10 11 12 13 16 18 22 14 15 18 14 14 13 12 12 14 12 10 11 12 11 10 10 10 10

GFSSW_con_lsi_117.txt.gz
Lid_Strength_Index
-1 -1 -1 -1 -1 -1 -1 -1 0 1 1 1 1 2 2 2 2 6 9 6 6 1 3 8 8 7 6 6 6 6 11 12 11 11 11 9 10 9 8 8 8 6 6 4 2
-1 -1 -1 -1 -1 -1 -1 -1 0 0 1 1 0 1 1 2 7 8 5 1 1 1 8 10 10 8 8 7 8 10 11 10 9 10 10 9 9 9 10 9 8 6 4 3 3
-1 -1 -1 -1 -1 -1 -1 -1 0 0 0 0 1 1 1 3 9 9 2 0 0 2 7 8 8 9 9 9 9 10 10 10 9 8 7 9 9 9 10 10 8 8 6 4 4
-1 -0 -0 -1 -1 -1 -1 -1 0 0 0 1 1 2 2 6 15 6 0 -0 1 5 7 8 10 10 10 11 7 10 9 9 8 8 8 9 8 9 9 9 7 5 4 4 4
-0 -0 0 0 -1 -1 -1 -1 0 0 1 1 1 1 5 10 10 4 -0 -1 3 7 7 8 11 10 11 11 10 10 10 9 9 9 9 7 9 9 9 8 7 5 4 4 4
-0 0 0 1 0 -1 -1 -1 -0 -0 -0 1 1 2 8 13 6 3 2 2 4 6 8 8 10 9 10 10 11 9 10 10 10 10 9 9 10 10 9 8 6 4 5 5 4
-0 -0 1 1 0 0 -1 -1 -1 -1 -1 0 0 4 9 11 5 4 3 4 5 6 9 8 9 11 10 11 10 10 12 11 11 10 11 10 11 10 9 8 9 7 6 5 4
0 0 1 1 0 0 0 -1 -1 -1 -1 -1 0 6 11 6 5 5 6 6 6 6 7 8 9 9 10 9 11 12 12 15 11 10 10 11 13 9 9 10 10 10 9 8 7
0 1 1 1 0 0 0 -0 -1 -1 -1 -1 3 8 12 4 6 5 6 7 7 7 8 8 10 12 12 13 14 14 17 15 14 11 11 12 13 11 10 11 11 11 11 10 9
-0 0 0 0 0 -0 0 0 -1 -1 -0 1 3 8 8 9 6 5 5 6 7 8 9 9 11 13 14 14 18 16 16 15 15 13 12 14 13 11 11 11 11 12 12 11 10
-0 0 0 1 -0 -1 1 3 6 7 4 9 9 9 8 6 5 7 5 7 7 9 13 11 14 15 13 12 12 13 14 15 14 12 12 13 13 12 11 12 12 12 11 11 10
-0 -0 -0 1 -0 -0 1 8 8 8 11 7 7 7 6 5 8 7 5 9 10 13 11 13 16 11 10 11 12 13 15 15 14 12 13 14 13 12 12 11 11 11 11 11 11
0 1 0 1 -0 1 4 7 5 5 10 9 7 8 7 6 8 9 6 8 11 12 12 14 12 10 10 12 13 14 14 15 14 13 14 15 16 14 12 11 11 11 10 10 10
1 0 1 0 2 3 4 3 4 5 13 12 10 8 6 6 9 6 6 8 10 12 12 12 10 11 12 13 12 15 13 13 13 16 18 16 20 16 14 13 12 11 11 10 10
1 1 1 1 3 6 4 3 4 7 19 11 10 5 6 8 8 8 7 9 11 11 12 13 12 12 13 12 11 13 12 13 13 15 17 18 19 17 15 15 12 11 11 11 11
1 1 1 2 2 2 2 2 6 13 18 13 10 10 9 8 9 8 9 9 9 11 12 12 11 11 12 11 11 11 12 13 15 16 20 18 18 19 16 14 13 12 11 11 9
1 1 2 2 5 2 2 5 14 19 12 15 14 11 12 11 11 10 12 13 14 15 16 14 13 12 11 13 12 13 15 19 19 20 21 18 19 17 14 13 12 12 11 10 10
1 1 2 2 1 2 4 10 19 15 15 12 12 11 13 11 11 11 12 13 12 13 15 16 17 13 12 12 14 14 15 18 22 21 20 18 20 16 13 13 13 12 11 11 10
1 2 3 2 1 2 8 15 17 15 12 13 12 14 14 12 12 12 13 12 12 13 15 16 15 12 11 11 11 14 16 13 17 24 21 19 17 14 13 12 13 14 11 11 10
3 4 4 2 0 4 10 14 12 10 10 11 15 14 17 14 15 14 14 12 12 11 11 13 15 12 12 11 12 13 12 16 17 24 24 20 20 18 15 14 14 13 12 11 11
3 7 4 1 2 8 14 14 10 9 9 12 13 14 14 15 14 15 14 13 11 11 10 12 14 15 13 14 14 14 15 15 15 17 21 23 20 16 14 13 13 13 13 12 11
6 12 3 1 10 11 15 12 9 9 8 10 11 11 13 13 13 14 14 12 9 9 12 11 14 17 15 12 12 12 14 14 17 19 18 18 18 14 13 13 12 13 12 11 11
10 10 6 4 14 13 13 11 9 10 10 10 11 10 11 12 14 12 12 10 10 10 11 11 16 21 17 14 13 15 14 13 14 16 17 20 18 13 13 12 11 12 11 10 10
11 13 11 7 10 12 13 13 12 9 9 9 10 9 11 12 11 13 12 11 10 10 8 9 14 16 18 17 14 15 14 12 13 17 17 17 16 15 13 13 11 11 11 11 10
13 14 12 14 13 11 11 11 12 12 9 8 10 10 11 13 12 13 11 12 11 10 10 11 18 15 15 14 13 14 14 13 14 14 16 15 15 13 13 12 11 11 11 11 11
14 14 12 12 10 11 11 12 12 11 11 11 11 10 10 12 12 13 12 12 13 12 12 12 19 16 18 14 14 16 15 14 13 13 14 15 15 13 13 13 12 11 12 12 12
12 11 10 11 11 11 12 11 11 10 10 9 9 10 11 11 10 9 9 10 10 12 13 15 17 19 19 15 15 19 17 15 15 14 14 16 13 12 13 12 12 12 11 11 10

GFSSW_con_lsi_123.txt.gz
Lid_Strength_Index
0 1 1 -1 -1 -1 -1 -1 -1 -0 0 1 1 1 1 2 2 6 8 5 5 2 4 9 8 9 9 11 11 12 15 16 13 13 12 11 11 11 10 9 8 7 6 4 2
1 1 1 -1 -1 -1 -1 -1 -1 -0 -0 0 1 2 2 2 7 8 3 1 2 1 8 10 10 10 11 11 13 14 16 14 12 12 11 10 10 10 10 9 8 8 5 3 3
1 1 1 -0 -1 -1 -1 -1 -1 1 1 0 1 2 2 5 9 8 2 1 2 3 8 9 9 10 12 13 14 14 15 13 12 11 10 10 11 11 10 12 7 7 6 4 4
1 2 1 1 1 -1 -1 -1 -1 -0 -1 0 1 2 2 5 11 8 1 1 1 4 9 10 10 12 13 13 12 15 12 13 11 10 10 10 10 11 10 10 9 5 4 4 5
1 2 2 1 1 -1 -1 -1 -1 -1 -0 1 1 1 5 10 10 7 1 2 2 7 9 10 11 13 14 12 12 13 13 13 12 10 10 9 11 11 11 10 5 4 4 5 4
2 2 2 1 1 -0 -1 -1 -1 -1 -1 0 2 2 7 12 8 5 4 5 7 9 10 10 11 10 12 13 12 10 13 12 11 10 11 10 12 11 10 9 6 5 5 5 4
1 2 1 1 1 -0 -0 -1 -1 -1 -1 1 1 5 9 10 6 5 6 7 8 9 11 10 10 11 12 14 12 10 13 14 12 11 12 11 12 11 11 8 6 6 6 5 4
-0 2 2 1 1 -0 0 -1 -1 -0 -0 0 2 6 11 6 6 5 7 8 8 10 9 10 10 11 12 12 14 13 13 15 14 11 12 11 13 11 11 9 7 7 6 5 5
-1 2 2 1 1 0 0 -0 -0 -1 0 1 5 7 10 5 8 7 8 9 8 9 10 8 10 12 13 16 17 17 18 16 14 12 13 12 13 12 11 10 9 7 6 6 5
-1 0 2 1 0 0 0 0 -0 -0 1 2 4 9 9 9 7 8 9 8 9 10 11 12 12 15 16 18 18 19 18 17 15 13 13 13 13 12 13 12 10 9 8 8 7
-1 -0 -0 1 -0 -0 0 1 5 6 5 9 9 9 10 8 6 8 9 10 11 12 15 13 15 17 17 16 15 16 16 16 17 13 13 14 13 13 13 14 13 12 12 12 10
-1 0 -0 0 -0 -0 1 5 5 6 10 8 8 8 9 7 10 9 9 12 13 16 14 15 17 14 13 14 15 16 17 17 15 13 14 15 14 13 13 12 12 12 13 12 11
-0 0 -0 -0 -0 1 3 5 4 6 10 11 9 8 10 9 10 10 10 12 13 15 15 17 15 12 13 15 15 18 18 18 16 16 16 16 16 15 13 13 12 12 11 11 10
0 0 -0 -0 2 2 4 5 4 6 14 13 11 9 9 9 12 9 9 11 14 15 14 15 13 13 15 16 16 18 16 16 16 17 19 17 20 18 16 14 14 12 11 11 10
0 0 -0 -0 3 4 4 4 6 8 20 11 11 7 8 10 10 10 9 11 15 15 14 16 15 14 15 15 15 17 15 16 17 18 19 19 20 18 18 16 14 12 12 11 11
0 0 0 1 2 2 4 5 7 13 19 13 10 11 11 11 10 10 10 11 12 14 14 14 13 13 13 14 14 14 16 17 18 19 22 19 18 19 18 15 14 14 13 12 12
1 0 1 1 4 4 4 7 13 17 12 15 14 11 12 13 12 10 12 14 15 17 17 16 15 14 13 14 14 16 17 20 21 21 23 20 20 18 15 14 14 14 13 13 12
0 1 1 1 3 3 6 11 17 15 15 13 13 12 14 13 13 12 13 14 14 15 16 17 19 15 13 14 16 16 16 20 24 23 22 19 20 18 14 13 13 14 14 12 11
0 2 2 2 3 4 9 16 17 15 14 14 13 14 16 13 13 13 13 14 13 14 16 18 17 14 13 13 12 16 17 15 19 25 22 20 19 15 14 14 14 14 13 12 12
3 4 4 3 3 6 12 15 15 12 12 12 16 14 17 15 15 14 14 13 14 13 13 14 17 14 13 12 13 14 13 16 18 23 23 20 20 18 16 14 14 14 13 13 12
4 8 4 3 4 9 14 16 13 11 11 13 15 16 15 15 15 15 14 14 12 13 13 14 14 16 14 14 16 15 16 17 16 18 22 23 20 17 15 15 14 14 13 13 12
5 11 4 4 10 11 14 14 11 12 11 12 12 13 14 14 15 15 16 14 11 12 14 13 14 17 16 14 14 14 14 14 16 20 21 20 19 15 15 15 14 14 14 14 12
9 8 4 6 14 13 12 13 12 12 12 12 13 12 11 13 15 13 14 11 10 11 13 12 15 19 16 14 14 15 15 15 16 17 20 21 20 14 14 14 13 12 12 12 12
10 12 8 8 10 12 13 14 14 11 11 11 12 11 12 13 12 14 13 11 10 10 8 9 14 15 17 17 15 16 15 14 14 17 18 18 18 16 15 13 13 12 12 11 11
12 12 10 13 12 11 12 13 14 14 11 11 13 12 13 14 14 14 12 11 11 9 10 11 16 15 16 15 13 15 14 14 14 14 16 16 16 15 14 13 13 13 11 11 11
12 11 9 11 11 12 12 14 13 13 12 13 14 12 11 14 13 15 14 14 13 12 13 13 19 16 17 15 15 15 14 14 14 14 16 18 17 14 13 14 13 12 12 13 12
12 10 9 10 11 13 13 13 12 11 11 11 12 12 12 11 11 10 10 10 11 11 12 13 17 19 22 16 15 18 16 15 15 15 15 17 14 13 15 13 12 13 13 13 12